Location: Joffre
(52.3362°N, 113.5373°W)
Time: 12:20:40
(UTC+00:00)

N. Korean satellite - Pass Details

Date: 05 December 2021
Orbit: 447 x 490 km, 97.3° (Epoch: 27 January)

Event Time Altitude Azimuth Distance (km) Brightness Sun altitude
Rises 12:09:48 0° 24° (NNE) 2,472 10.5 -28.9°
Reaches altitude 10° 12:12:10 10° 40° (NE) 1,589 9.6 -28.6°
Maximum altitude 12:14:54 22° 94° (E) 1,029 8.9 -28.2°
Drops below altitude 10° 12:17:36 10° 147° (SSE) 1,574 9.5 -27.7°
Sets 12:19:56 0° 163° (SSE) 2,441 10.4 -27.4°
